This is the latest recevied weather packets stored in our database for station/object BMCB-35. If no packets are shown the sender has not sent any weather packets the latest 10 day(s).
| Time | Temp. | Humidity | Pressure | Rain* | Wind** | Luminosity | Snow |
|---|---|---|---|---|---|---|---|
| 1778049036 | 11.11° C | 98% | 1006.1 hPa | 0.51 mm | - | 134 W/m² | - |
| 1778048437 | 11.11° C | 99% | 1006.1 hPa | 0.51 mm | - | 68 W/m² | - |
| 1778044805 | 10.56° C | 98% | 1006 hPa | 0 mm | - | 27 W/m² | - |
| 1778042417 | 10.56° C | 97% | 1005.8 hPa | 0 mm | - | 9 W/m² | - |
| 1778041824 | 10.56° C | 97% | 1006 hPa | 0 mm | - | 0 W/m² | - |
| 1778038238 | 10.56° C | 97% | 1006.4 hPa | 0 mm | - | 0 W/m² | - |
| 1778037638 | 10.56° C | 97% | 1006.4 hPa | 0 mm | - | 0 W/m² | - |
| 1778037003 | 10.56° C | 98% | 1006.5 hPa | 0 mm | - | 0 W/m² | - |
| 1778034643 | 11.11° C | 99% | 1006.3 hPa | 0 mm | - | 0 W/m² | - |
| 1778032811 | 11.11° C | 99% | 1006.3 hPa | 0 mm | - | 0 W/m² | - |
| 1778031639 | 11.67° C | 99% | 1006.4 hPa | 0 mm | - | 0 W/m² | - |
| 1778026842 | 11.11° C | 10% | 1007.3 hPa | 0.25 mm | - | - | - |
| 1778025611 | 10.56° C | 10% | 1007.4 hPa | 0 mm | - | - | - |
| 1778025018 | 10.56° C | 10% | 1007.4 hPa | 0 mm | - | - | - |
| 1778023838 | 10.56° C | 10% | 1007.5 hPa | 0 mm | - | - | - |
| 1778022604 | 10.56° C | 10% | 1007.5 hPa | 0 mm | - | - | - |
| 1778020815 | 11.11° C | 10% | 1007.5 hPa | 0 mm | - | - | - |
| 1778019643 | 11.11° C | 10% | 1007.5 hPa | 0 mm | - | - | - |
| 1778016006 | 11.67° C | 10% | 1007.7 hPa | 0 mm | - | - | - |
| 1778014243 | 12.22° C | 99% | 1007.7 hPa | 0 mm | - | 0 W/m² | - |
| 1778012423 | 12.22° C | 98% | 1007.7 hPa | 0 mm | - | 0 W/m² | - |
| 1778008211 | 12.78° C | 10% | 1007.1 hPa | 2.54 mm | - | - | - |
| 1778007637 | 12.78° C | 10% | 1007.1 hPa | 4.83 mm | - | - | - |
| 1778006438 | 12.78° C | 99% | 1007.1 hPa | 7.11 mm | - | 0 W/m² | - |
| 1778005808 | 13.33° C | 99% | 1007.1 hPa | 7.11 mm | - | 0 W/m² | - |
* Rain latest hour (hover to see other rain measurements)
** Current wind speed in m/s (hover to see current wind gust speed)